Regional Weather Roundup
Issued by NWS

Home | Current Version | Previous Version | Graphics & Text | Print | Product List | Glossary On
Versions: 1 2 3 4 5 6 7 8 9 10 11 12 13 14 15 16 17 18 19 20 21 22 23 24 25 26 27 28 29 30 31 32 33 34 35 36 37 38 39 40 41 42 43 44 45 46 47 48 49 50
000
ASUS43 KLMK 210902
RWRKY
KENTUCKY REGIONAL WEATHER ROUNDUP
NATIONAL WEATHER SERVICE LOUISVILLE KY
500 AM EDT SAT OCT 21 2017

NOTE "FAIR" INDICATES FEW OR NO CLOUDS BELOW 12,000 FEET
WITH NO SIGNIFICANT WEATHER AND/OR OBSTRUCTIONS TO VISIBILITY.

KYZ001>023-026-027-061>063-070>075-211000-
WESTERN AND SOUTH CENTRAL KENTUCKY

CITY           SKY/WX    TMP DP  RH WIND       PRES   REMARKS
PADUCAH        CLOUDY    61  46  57 S7        30.11S
HENDERSON      CLOUDY    53  48  83 SE3       30.13S
OWENSBORO      PTCLDY    52  49  89 CALM      30.15S
HOPKINSVILLE   PTCLDY    54  50  87 SE6       30.15S
BOWLING GREEN  CLOUDY    48  48 100 CALM      30.18S
GLASGOW        NOT AVBL
$$

KYZ024-025-028>034-038-045-046-053-211000-
NORTH CENTRAL KENTUCKY

CITY           SKY/WX    TMP DP  RH WIND       PRES   REMARKS
LOUISVILLE/SDF PTCLDY    56  51  84 SE6       30.17R
LOUISVILLE/LOU PTCLDY    52  51  97 CALM      30.18S
FORT KNOX      CLOUDY    52  49  92 CALM      30.16R
$$

KYZ035>037-039>044-047>052-055>060-089>105-211000-
NORTHEAST KENTUCKY

CITY           SKY/WX    TMP DP  RH WIND       PRES   REMARKS
LEXINGTON      CLEAR     54  50  86 SE7       30.20R
COVINGTON      PTCLDY    56  53  90 S5        30.19R
FRANKFORT      PTCLDY    48  43  82 CALM      30.18S HAZE
$$

KYZ054-064>069-076>088-106>120-211000-
SOUTHEAST KENTUCKY

CITY           SKY/WX    TMP DP  RH WIND       PRES   REMARKS
JACKSON        CLEAR     55  50  83 CALM      30.22R
LONDON         PTCLDY    46  44  93 CALM      30.22S
SOMERSET       NOT AVBL
MIDDLESBORO    FOG       45  45 100 CALM      30.27R VSB 1/4
MONTICELLO     MOSUNNY   43  42  97 NE9       30.23S
$$




USA.gov is the U.S. government's official web portal to all federal, state and local government web resources and services.